Time,TemperatureF,DewpointF,PressureIn,WindDirection,WindDirectionDegrees,WindSpeedMPH,WindSpeedGustMPH,Humidity,HourlyPrecipIn,Conditions,Clouds,dailyrainin,SoftwareType,DateUTC
2013-06-17 00:00:00,54.4,50.0,29.98,NE,39,1.0,3.0,85,0.00,CLR,,0.00,WeatherDisplay:10.37,2013-06-16 23:00:00,
2013-06-17 00:15:00,54.4,50.3,29.99,NE,52,2.0,4.0,86,0.00,CLR,,0.00,WeatherDisplay:10.37,2013-06-16 23:15:00,
2013-06-17 00:30:00,54.3,50.2,29.99,NNE,29,3.0,5.0,86,0.00,CLR,,0.00,WeatherDisplay:10.37,2013-06-16 23:30:00,
2013-06-17 00:45:00,54.0,49.9,29.99,NNE,32,3.0,7.0,86,0.00,CLR,,0.00,WeatherDisplay:10.37,2013-06-16 23:45:00,
2013-06-17 01:00:00,54.0,50.3,29.99,NE,41,3.0,6.0,87,0.00,CLR,,0.00,WeatherDisplay:10.37,2013-06-17 00:00:00,
2013-06-17 01:15:00,53.9,50.1,30.00,NE,37,2.0,7.0,87,0.00,CLR,,0.00,WeatherDisplay:10.37,2013-06-17 00:15:00,
2013-06-17 01:30:00,53.7,50.2,30.00,NE,40,5.0,7.0,88,0.00,CLR,,0.00,WeatherDisplay:10.37,2013-06-17 00:30:00,
2013-06-17 01:45:00,53.4,50.2,30.00,NE,41,5.0,6.0,89,0.00,CLR,,0.00,WeatherDisplay:10.37,2013-06-17 00:45:00,
2013-06-17 02:00:00,53.3,50.1,30.00,ENE,58,2.0,7.0,89,0.00,CLR,,0.00,WeatherDisplay:10.37,2013-06-17 01:00:00,
2013-06-17 02:15:00,53.2,50.3,30.00,NE,44,2.0,5.0,90,0.00,CLR,,0.00,WeatherDisplay:10.37,2013-06-17 01:15:00,
2013-06-17 02:30:00,52.9,50.1,30.00,NNE,28,2.0,5.0,90,0.00,CLR,,0.00,WeatherDisplay:10.37,2013-06-17 01:30:00,
2013-06-17 02:45:00,52.9,50.0,30.00,NE,35,2.0,5.0,90,0.00,CLR,,0.00,WeatherDisplay:10.37,2013-06-17 01:45:00,
2013-06-17 03:00:00,52.8,49.9,30.00,NE,42,3.0,7.0,90,0.00,CLR,,0.00,WeatherDisplay:10.37,2013-06-17 02:00:00,
2013-06-17 03:15:00,52.5,49.7,30.00,NE,44,1.0,4.0,90,0.00,CLR,,0.00,WeatherDisplay:10.37,2013-06-17 02:15:00,
2013-06-17 03:30:00,52.3,49.5,30.00,NE,40,3.0,5.0,90,0.00,CLR,,0.00,WeatherDisplay:10.37,2013-06-17 02:30:00,
2013-06-17 03:45:00,52.1,49.6,30.00,NE,39,2.0,4.0,91,0.00,CLR,,0.00,WeatherDisplay:10.37,2013-06-17 02:45:00,
2013-06-17 04:00:00,52.0,49.5,30.00,NE,53,1.0,4.0,91,0.00,CLR,,0.00,WeatherDisplay:10.37,2013-06-17 03:00:00,
2013-06-17 04:15:00,51.8,49.3,30.01,NE,42,1.0,2.0,91,0.00,CLR,,0.00,WeatherDisplay:10.37,2013-06-17 03:15:00,
2013-06-17 04:30:00,51.8,49.5,30.01,NE,46,1.0,4.0,92,0.00,CLR,,0.00,WeatherDisplay:10.37,2013-06-17 03:30:00,
2013-06-17 04:45:00,51.8,49.5,30.01,NE,46,1.0,5.0,92,0.00,CLR,,0.00,WeatherDisplay:10.37,2013-06-17 03:45:00,
2013-06-17 05:00:00,51.9,49.6,30.01,NE,47,2.0,5.0,92,0.00,CLR,,0.00,WeatherDisplay:10.37,2013-06-17 04:00:00,
2013-06-17 05:15:00,51.8,49.5,30.01,NE,55,1.0,3.0,92,0.00,CLR,,0.00,WeatherDisplay:10.37,2013-06-17 04:15:00,
2013-06-17 05:30:00,51.9,49.6,30.02,NE,41,3.0,7.0,92,0.00,CLR,,0.00,WeatherDisplay:10.37,2013-06-17 04:30:00,
2013-06-17 05:45:00,52.0,49.7,30.02,NE,48,2.0,8.0,92,0.00,CLR,,0.00,WeatherDisplay:10.37,2013-06-17 04:45:00,
2013-06-17 06:00:00,52.3,50.0,30.02,NE,47,3.0,7.0,92,0.00,CLR,,0.00,WeatherDisplay:10.37,2013-06-17 05:00:00,
2013-06-17 06:15:00,52.6,50.3,30.02,NE,45,2.0,8.0,92,0.00,CLR,,0.00,WeatherDisplay:10.37,2013-06-17 05:15:00,
2013-06-17 06:30:00,52.6,50.4,30.03,NE,42,3.0,9.0,92,0.00,CLR,,0.00,WeatherDisplay:10.37,2013-06-17 05:30:00,
2013-06-17 06:45:00,53.2,50.6,30.03,NE,52,5.0,6.0,91,0.00,CLR,,0.00,WeatherDisplay:10.37,2013-06-17 05:45:00,
2013-06-17 07:00:00,53.2,50.9,30.03,ENE,68,1.0,5.0,92,0.00,CLR,,0.00,WeatherDisplay:10.37,2013-06-17 06:00:00,
2013-06-17 07:15:00,53.2,50.7,30.04,ESE,104,2.0,4.0,91,0.00,CLR,,0.00,WeatherDisplay:10.37,2013-06-17 06:15:00,
2013-06-17 07:30:00,53.4,50.8,30.04,East,90,3.0,5.0,91,0.00,CLR,,0.00,WeatherDisplay:10.37,2013-06-17 06:30:00,
2013-06-17 07:45:00,53.3,50.4,30.05,East,90,2.0,5.0,90,0.00,CLR,,0.00,WeatherDisplay:10.37,2013-06-17 06:45:00,
2013-06-17 08:00:00,53.7,50.8,30.05,ENE,74,2.0,4.0,90,0.00,CLR,,0.00,WeatherDisplay:10.37,2013-06-17 07:00:00,
2013-06-17 08:15:00,54.3,51.4,30.05,ESE,104,1.0,4.0,90,0.00,CLR,,0.00,WeatherDisplay:10.37,2013-06-17 07:15:00,
2013-06-17 08:30:00,54.6,51.1,30.06,East,96,6.0,7.0,88,0.00,CLR,,0.00,WeatherDisplay:10.37,2013-06-17 07:30:00,
2013-06-17 08:45:00,54.6,51.1,30.06,East,101,5.0,9.0,88,0.00,CLR,,0.00,WeatherDisplay:10.37,2013-06-17 07:45:00,
2013-06-17 09:00:00,55.2,51.7,30.06,ESE,109,5.0,8.0,88,0.00,CLR,,0.00,WeatherDisplay:10.37,2013-06-17 08:00:00,
2013-06-17 09:15:00,55.3,51.5,30.07,East,100,5.0,8.0,87,0.00,CLR,,0.00,WeatherDisplay:10.37,2013-06-17 08:15:00,
2013-06-17 09:30:00,55.1,51.7,30.06,East,96,3.0,9.0,88,0.00,CLR,,0.00,WeatherDisplay:10.37,2013-06-17 08:30:00,
2013-06-17 09:45:00,55.3,51.5,30.06,East,92,7.0,9.0,87,0.00,CLR,,0.00,WeatherDisplay:10.37,2013-06-17 08:45:00,
2013-06-17 10:00:00,55.5,51.7,30.07,ENE,78,6.0,8.0,87,0.00,CLR,,0.00,WeatherDisplay:10.37,2013-06-17 09:00:00,
2013-06-17 10:15:00,55.1,51.6,30.07,East,89,6.0,9.0,88,0.00,CLR,,0.00,WeatherDisplay:10.37,2013-06-17 09:15:00,
2013-06-17 10:30:00,55.4,51.9,30.07,East,97,6.0,8.0,88,0.00,CLR,,0.00,WeatherDisplay:10.37,2013-06-17 09:30:00,
2013-06-17 10:45:00,55.4,52.2,30.07,East,91,6.0,9.0,89,0.00,CLR,,0.00,WeatherDisplay:10.37,2013-06-17 09:45:00,
2013-06-17 11:00:00,55.4,52.2,30.07,East,80,5.0,9.0,89,0.00,CLR,,0.00,WeatherDisplay:10.37,2013-06-17 10:00:00,
2013-06-17 11:15:00,55.6,53.0,30.06,East,91,6.0,10.0,91,0.00,CLR,,0.00,WeatherDisplay:10.37,2013-06-17 10:15:00,
2013-06-17 11:30:00,56.1,52.6,30.06,East,79,7.0,12.0,88,0.00,CLR,,0.00,WeatherDisplay:10.37,2013-06-17 10:30:00,
2013-06-17 11:45:00,55.6,52.4,30.06,ENE,78,7.0,12.0,89,0.00,CLR,,0.00,WeatherDisplay:10.37,2013-06-17 10:45:00,
2013-06-17 12:00:00,55.7,52.5,30.06,ENE,69,6.0,12.0,89,0.00,CLR,,0.00,WeatherDisplay:10.37,2013-06-17 11:00:00,
2013-06-17 12:15:00,55.9,52.7,30.06,ENE,78,7.0,10.0,89,0.00,CLR,,0.00,WeatherDisplay:10.37,2013-06-17 11:15:00,
2013-06-17 12:30:00,56.3,52.8,30.05,East,93,7.0,12.0,88,0.00,CLR,,0.00,WeatherDisplay:10.37,2013-06-17 11:30:00,
2013-06-17 12:45:00,57.0,53.2,30.05,East,83,8.0,12.0,87,0.00,CLR,,0.00,WeatherDisplay:10.37,2013-06-17 11:45:00,
2013-06-17 13:00:00,56.5,53.3,30.05,East,83,7.0,14.0,89,0.00,CLR,,0.00,WeatherDisplay:10.37,2013-06-17 12:00:00,
2013-06-17 13:15:00,57.7,53.8,30.05,East,80,9.0,14.0,87,0.00,CLR,,0.00,WeatherDisplay:10.37,2013-06-17 12:15:00,
2013-06-17 13:30:00,57.1,53.5,30.05,ENE,76,7.0,15.0,88,0.00,CLR,,0.00,WeatherDisplay:10.37,2013-06-17 12:30:00,
2013-06-17 13:45:00,57.9,53.7,30.06,East,82,8.0,15.0,86,0.00,CLR,,0.00,WeatherDisplay:10.37,2013-06-17 12:45:00,
2013-06-17 14:00:00,58.4,53.6,30.06,ENE,75,10.0,16.0,84,0.00,CLR,,0.00,WeatherDisplay:10.37,2013-06-17 13:00:00,
2013-06-17 14:15:00,57.3,53.2,30.06,ENE,74,9.0,16.0,86,0.00,CLR,,0.00,WeatherDisplay:10.37,2013-06-17 13:15:00,
2013-06-17 14:30:00,57.5,53.0,30.05,ENE,77,9.0,13.0,85,0.00,CLR,,0.00,WeatherDisplay:10.37,2013-06-17 13:30:00,
2013-06-17 14:45:00,58.6,53.4,30.05,ENE,70,6.0,13.0,83,0.00,CLR,,0.00,WeatherDisplay:10.37,2013-06-17 13:45:00,
2013-06-17 15:00:00,57.8,52.7,30.05,ENE,76,6.0,14.0,83,0.00,CLR,,0.00,WeatherDisplay:10.37,2013-06-17 14:00:00,
2013-06-17 15:15:00,57.9,52.5,30.05,ENE,61,9.0,13.0,82,0.00,CLR,,0.00,WeatherDisplay:10.37,2013-06-17 14:15:00,
2013-06-17 15:30:00,57.5,53.1,30.04,ENE,72,9.0,13.0,85,0.00,CLR,,0.00,WeatherDisplay:10.37,2013-06-17 14:30:00,
2013-06-17 15:45:00,58.0,52.9,30.04,ENE,71,6.0,13.0,83,0.00,CLR,,0.00,WeatherDisplay:10.37,2013-06-17 14:45:00,
2013-06-17 16:00:00,58.1,53.0,30.04,ENE,75,7.0,12.0,83,0.00,CLR,,0.00,WeatherDisplay:10.37,2013-06-17 15:00:00,
2013-06-17 16:15:00,58.2,53.1,30.04,ENE,62,8.0,12.0,83,0.00,CLR,,0.00,WeatherDisplay:10.37,2013-06-17 15:15:00,
2013-06-17 16:30:00,57.9,52.8,30.04,ENE,66,7.0,12.0,83,0.00,CLR,,0.00,WeatherDisplay:10.37,2013-06-17 15:30:00,
2013-06-17 16:45:00,58.1,52.6,30.04,ENE,64,5.0,10.0,82,0.00,CLR,,0.00,WeatherDisplay:10.37,2013-06-17 15:45:00,
2013-06-17 17:00:00,58.4,52.6,30.04,ENE,61,7.0,10.0,81,0.00,CLR,,0.00,WeatherDisplay:10.37,2013-06-17 16:00:00,
2013-06-17 17:15:00,58.6,52.8,30.04,NE,55,6.0,10.0,81,0.00,CLR,,0.00,WeatherDisplay:10.37,2013-06-17 16:15:00,
2013-06-17 17:30:00,58.8,52.6,30.04,ENE,62,5.0,8.0,80,0.00,CLR,,0.00,WeatherDisplay:10.37,2013-06-17 16:30:00,
2013-06-17 17:45:00,58.8,52.3,30.04,ENE,59,6.0,9.0,79,0.00,CLR,,0.00,WeatherDisplay:10.37,2013-06-17 16:45:00,
2013-06-17 18:00:00,59.2,52.7,30.04,NE,54,6.0,8.0,79,0.00,CLR,,0.00,WeatherDisplay:10.37,2013-06-17 17:00:00,
2013-06-17 18:15:00,59.3,52.4,30.04,ENE,62,5.0,10.0,78,0.00,CLR,,0.00,WeatherDisplay:10.37,2013-06-17 17:15:00,
2013-06-17 18:30:00,59.6,52.4,30.04,ENE,66,5.0,10.0,77,0.00,CLR,,0.00,WeatherDisplay:10.37,2013-06-17 17:30:00,
2013-06-17 18:45:00,59.5,52.6,30.04,ENE,57,5.0,9.0,78,0.00,CLR,,0.00,WeatherDisplay:10.37,2013-06-17 17:45:00,
2013-06-17 19:00:00,59.6,52.7,30.04,ENE,59,6.0,8.0,78,0.00,CLR,,0.00,WeatherDisplay:10.37,2013-06-17 18:00:00,
2013-06-17 19:15:00,59.6,53.1,30.03,ENE,66,5.0,9.0,79,0.00,CLR,,0.00,WeatherDisplay:10.37,2013-06-17 18:15:00,
2013-06-17 19:30:00,59.6,53.1,30.03,ENE,58,3.0,8.0,79,0.00,CLR,,0.00,WeatherDisplay:10.37,2013-06-17 18:30:00,
2013-06-17 19:45:00,59.9,53.7,30.03,ENE,58,3.0,6.0,80,0.00,CLR,,0.00,WeatherDisplay:10.37,2013-06-17 18:45:00,
2013-06-17 20:00:00,59.4,53.9,30.03,NE,40,1.0,6.0,82,0.00,CLR,,0.00,WeatherDisplay:10.37,2013-06-17 19:00:00,
2013-06-17 20:15:00,59.2,53.7,30.03,NE,45,2.0,4.0,82,0.00,CLR,,0.00,WeatherDisplay:10.37,2013-06-17 19:15:00,
2013-06-17 20:30:00,58.9,53.7,30.04,NE,51,2.0,7.0,83,0.00,CLR,,0.00,WeatherDisplay:10.37,2013-06-17 19:30:00,
2013-06-17 20:45:00,58.3,53.2,30.03,NE,46,5.0,6.0,83,0.00,CLR,,0.00,WeatherDisplay:10.37,2013-06-17 19:45:00,
2013-06-17 21:00:00,58.0,53.2,30.03,NE,44,2.0,7.0,84,0.00,CLR,,0.00,WeatherDisplay:10.37,2013-06-17 20:00:00,
2013-06-17 21:15:00,57.7,52.9,30.04,NE,51,3.0,5.0,84,0.00,CLR,,0.00,WeatherDisplay:10.37,2013-06-17 20:15:00,
2013-06-17 21:30:00,57.5,53.1,30.04,NE,41,2.0,6.0,85,0.00,CLR,,0.00,WeatherDisplay:10.37,2013-06-17 20:30:00,
2013-06-17 21:45:00,57.4,52.9,30.04,NNE,33,3.0,9.0,85,0.00,CLR,,0.00,WeatherDisplay:10.37,2013-06-17 20:45:00,
2013-06-17 22:00:00,57.2,52.7,30.04,ENE,58,3.0,8.0,85,0.00,CLR,,0.00,WeatherDisplay:10.37,2013-06-17 21:00:00,
2013-06-17 22:15:00,57.0,52.5,30.05,NE,41,3.0,7.0,85,0.00,CLR,,0.00,WeatherDisplay:10.37,2013-06-17 21:15:00,
2013-06-17 22:30:00,56.6,52.5,30.05,NE,41,3.0,6.0,86,0.00,CLR,,0.00,WeatherDisplay:10.37,2013-06-17 21:30:00,
2013-06-17 22:45:00,56.4,52.3,30.05,NE,36,5.0,7.0,86,0.00,CLR,,0.00,WeatherDisplay:10.37,2013-06-17 21:45:00,
2013-06-17 23:00:00,56.3,52.1,30.04,NNE,32,6.0,12.0,86,0.00,CLR,,0.00,WeatherDisplay:10.37,2013-06-17 22:00:00,
2013-06-17 23:15:00,56.3,52.2,30.04,NE,40,3.0,9.0,86,0.00,CLR,,0.00,WeatherDisplay:10.37,2013-06-17 22:15:00,
2013-06-17 23:30:00,56.4,52.3,30.04,NE,42,3.0,7.0,86,0.00,CLR,,0.00,WeatherDisplay:10.37,2013-06-17 22:30:00,
2013-06-17 23:45:00,56.5,52.7,30.04,NE,47,3.0,7.0,87,0.00,CLR,,0.00,WeatherDisplay:10.37,2013-06-17 22:45:00,